sat.trackr.live / text

‹ back to catalog

NEXSAT-1

NORAD 58921 · 2024-024E

PAYLOAD ACTIVE UNKNOWN

§ Identity

Operator
Country
EGYP
Launch date
2024-02-03
Launch site
SCSLA
Launch vehicle
Mass (kg)
RCS (m²)

External: N2YO · Heavens-Above · Gunter

§ Orbital elements

Epoch: 2026-09-22T22:43:18.922656Z

Period
93.83 min
Inclination
97.2974°
Eccentricity
0.0009613
Mean motion
15.34636683 rev/d
Perigee alt
455.4 km
Apogee alt
468.6 km
Semi-major
6,840.1 km
B*
1.5244e-4
RAAN
338.9303°
Arg perigee
122.1040°
Mean anomaly
238.1138°
Rev number
14,688

§ Raw data

NEXSAT-11 58921U 24024E   26265.94674679  .00005043  00000+0  15244-3 0  99902 58921  97.2974 338.9303 0009613 122.1040 238.1138 15.34636683146881

JSON: /api/v1/satellites/58921 · /tle

For live sub-satellite position, see the globe view (requires WebGL).

§ Visibility from observer

Set your observer location to see the next 7 days of passes ≥ 10°. The values pass through the URL so the page stays shareable.

No JS? Fill the form by hand. The geolocation button needs JavaScript.

§ Radio — SatNOGS DB

ModeDescriptionDownlinkUplink
FSK Mode U - 9k6 GMSK 437.250 MHz

1 transmitter · refreshed weekly from db.satnogs.org